Location: Newark
(37.6333°N, 5.2500°W)
Time: 02:00:30
(UTC+00:00)

ISS - Visible Passes

Search period start: 25 March 2019 00:00
Search period end: 04 April 2019 00:00
Orbit: 408 x 411 km, 51.6° (Epoch: 24 March)

Date Brightness Start Highest point End Pass type
(mag) Time Alt. Az. Time Alt. Az. Time Alt. Az.
25 Mar -1.8 19:13:36 10° W 19:16:30 27° NNW 19:19:24 10° NNE visible
26 Mar -0.8 20:01:53 10° NW 20:02:59 11° NNW 20:04:04 10° N visible
27 Mar -1.0 19:09:59 10° WNW 19:12:01 15° NNW 19:14:03 10° NNE visible
31 Mar -0.9 20:40:53 10° N 20:41:03 10° NNE 20:41:03 10° NNE visible
01 Apr -0.3 21:25:02 10° NNW 21:25:05 10° NNW 21:25:05 10° NNW visible
02 Apr -1.4 20:34:40 10° NNW 20:36:21 16° NNE 20:36:21 16° NNE visible
03 Apr -1.2 19:44:30 10° N 19:45:47 12° NNE 19:47:03 10° NE visible
03 Apr -0.7 21:19:44 10° NW 21:20:24 15° NW 21:20:24 15° NW visible
